Flag for Russia Weather past 2 weeks in Penza, Russia

Now
46 °F

Passing clouds.


Feels Like: 41 °F
Forecast: 19 / 25 °F
Wind: 13 mph from Northwest

Location: Saratov / Tsentralny

Current Time: Oct 22, 2014 at 7:23:21 AM

Latest Report: Oct 22, 2014 at 7:00 AM


Visibility: N/A

Pressure: 29.45 "Hg

Humidity: 87%

Dew point: 43 °F

Location of PenzaLocation

Historic Weather in Penza — Graph

°F

Penza temperature yesterday

Maximum temperature yesterday: 52 °F (at 6:00 PM)
Minimum temperature yesterday: 41 °F (at 12:00 AM)
Average temperature yesterday: 47 °F

Past Weeks' High & Low Weather Summary

 TemperatureHumidityPressure
High68 °F (Oct 11, 3:00 PM)100% (Oct 9, 6:00 AM)30.57 "Hg (Oct 9, 6:00 AM)
Low25 °F (Oct 20, 5:00 AM)28% (Oct 13, 3:00 PM)29.42 "Hg (Oct 21, 7:00 PM)
Average49 °F67%30.02 "Hg
* Reported Oct 7 6:00 AM — Oct 22 6:30 AM, Penza, Weather by CustomWeather, © 2014

Note: Actual official high and low records may vary slightly from our data, if they occured in-between our weather recording intervals... More about our weather records

Advertising

Penza weather history for previous 24 hours

 ConditionsComfort  
Time TempWeatherWind HumidityBarometerVisibility
6:30 AM
Oct 22
52 °FOvercast.13 mph82%29.42 "HgN/A
6:00 AM52 °FOvercast.13 mph82%29.42 "HgN/A
5:30 AM52 °FOvercast.13 mph82%29.42 "HgN/A
5:00 AM52 °FOvercast.10 mph82%29.42 "HgN/A
4:30 AM52 °FOvercast.10 mph82%29.42 "HgN/A
4:00 AM52 °FOvercast.10 mph82%29.42 "HgN/A
3:30 AM50 °FPassing clouds.13 mph88%29.42 "HgN/A
3:00 AM50 °FPartly cloudy.10 mph88%29.42 "HgN/A
2:30 AM50 °FPassing clouds.10 mph82%29.42 "HgN/A
2:00 AM50 °FPassing clouds.10 mph82%29.42 "HgN/A
1:30 AM48 °FPartly cloudy.10 mph87%29.42 "HgN/A
1:00 AM48 °FPartly cloudy.13 mph87%29.42 "HgN/A
12:30 AM48 °FPartly cloudy.8 mph87%29.42 "HgN/A
12:00 AM48 °FPartly cloudy.8 mph87%29.42 "HgN/A
11:30 PM
Oct 21
48 °FPartly cloudy.8 mph87%29.42 "HgN/A
11:00 PM48 °FPartly cloudy.10 mph87%29.42 "HgN/A
10:30 PM50 °FPartly cloudy.8 mph88%29.42 "HgN/A
10:00 PM50 °FPartly cloudy.10 mph88%29.42 "HgN/A
9:30 PM50 °FPartly cloudy.13 mph94%29.42 "HgN/A
9:00 PM50 °FPassing clouds.10 mph94%29.42 "HgN/A
8:30 PM50 °FMostly cloudy.10 mph100%29.42 "HgN/A
8:00 PM50 °FSprinkles. Mostly cloudy.13 mph100%29.42 "Hg3 mi
7:30 PM50 °FMostly cloudy.8 mph100%29.42 "HgN/A
7:00 PM50 °FFog.8 mph100%29.42 "Hg3 mi
6:30 PM52 °FFog.3 mph94%29.45 "Hg3 mi
6:00 PM52 °FSprinkles. Fog.8 mph94%29.45 "Hg2 mi
5:30 PM50 °FFog.8 mph100%29.45 "Hg3 mi
5:00 PM50 °FLight rain. Fog.8 mph100%29.45 "Hg3 mi
4:30 PM50 °FFog.8 mph100%29.47 "Hg2 mi
4:00 PM50 °FFog.6 mph100%29.47 "Hg2 mi
3:30 PM50 °FLight rain. Fog.6 mph100%29.47 "Hg2 mi
3:00 PM50 °FLight rain. Fog.8 mph100%29.47 "Hg1 mi
2:30 PM50 °FLight rain. Fog.6 mph94%29.47 "Hg2 mi
2:00 PM50 °FMostly cloudy.10 mph94%29.47 "HgN/A
1:30 PM50 °FOvercast.8 mph94%29.50 "HgN/A
1:00 PM50 °FOvercast.6 mph94%29.50 "HgN/A
12:30 PM50 °FOvercast.10 mph94%29.50 "HgN/A
12:00 PM50 °FOvercast.8 mph94%29.50 "HgN/A
11:30 AM48 °FCool.2 mph100%29.50 "HgN/A
11:00 AM48 °FFog.10 mph100%29.50 "Hg3 mi
10:30 AM46 °FCool.2 mph100%29.50 "HgN/A
10:00 AM46 °FFog.8 mph100%29.50 "Hg3 mi
9:30 AM46 °FFog.6 mph93%29.50 "Hg3 mi
9:00 AM46 °FFog.10 mph93%29.50 "Hg2 mi
8:30 AM45 °FFog.10 mph100%29.50 "Hg2 mi
8:00 AM45 °FFog.8 mph100%29.50 "Hg2 mi
7:00 AM45 °FFog.8 mph100%29.50 "Hg2 mi
Weather by CustomWeather, © 2014

See weather overviewHow to use our weather pages